Location: Maccacari
(45.1333°N, 11.1333°E)
Time: 19:43:28
(UTC+00:00)

Tiros 1 despin weight - Pass Details

Date: 24 January 2021
Orbit: 593 x 642 km, 48.2° (Epoch: 26 February)

Event Time Altitude Azimuth Distance (km) Brightness Sun altitude
Rises 11:53:03 0° 185° (S) 2,894 ? 25.5°
Reaches altitude 10° 11:56:52 10° 154° (SSE) 1,980 ? 25.4°
Maximum altitude 11:58:26 12° 133° (SE) 1,868 ? 25.4°
Drops below altitude 10° 12:00:01 10° 113° (ESE) 1,973 ? 25.4°
Sets 12:03:47 0° 81° (E) 2,870 ? 25.3°
